Location: Newark
(35.2161°N, 26.1013°E)
Time: 15:41:16
(UTC+00:00)

BEESAT 2 - Pass Details

Date: 30 January 2020
Orbit: 493 x 534 km, 64.9° (Epoch: 17 February)

Event Time Altitude Azimuth Distance (km) Brightness Sun altitude
Exits shadow 03:01:08 13° 162° (SSE) 1,597 ? -27.8°
Drops below altitude 10° 03:01:32 10° 161° (SSE) 1,760 ? -27.7°
Sets 03:03:43 0° 159° (SSE) 2,638 ? -27.3°
